Volver al catálogo

COSMOS 970 DEB

ActivoLEO
NORAD 10878·DEBRIS·🇷🇺 Russia

Lanzado Dec 21, 1977 desde Baikonur Cosmodrome

Loading…

Próximos Pases (próximas 24 horas)

TLE

ActualizadoSource: Space-Track

Época: Sep 14, 2026, 21:07 UTC

1 10878U 77121Z   26257.88015228  .00000060  00000-0  16291-3 0  9996
2 10878  65.8389 210.4411 0114746 179.7415 211.5975 13.65277820421081

Sigue COSMOS 970 DEB en tiempo real con AllMySat

Download on the App Store